Regional Weather Roundup
Issued by NWS

Home | Current Version | Previous Version | Graphics & Text | Print | Product List | Glossary On
Versions: 1 2 3 4 5 6 7 8 9 10 11 12 13 14 15 16 17 18 19 20 21 22 23 24 25 26 27 28 29 30 31 32 33 34 35 36 37 38 39 40 41 42 43 44 45 46 47 48 49 50
000
ASUS43 KOAX 291810
RWRNE

WEATHER ROUNDUP FOR NEBRASKA
NATIONAL WEATHER SERVICE OMAHA NE
1200 PM CST THU JAN 29 2015

NOTES: SATELLITE DATA IS BEING USED TO AUGMENT CLOUD COVER ABOVE
       12000 FEET.
       "FAIR" INDICATES FEW OR NO CLOUDS BELOW 12,000 FEET WITH NO
       SIGNIFICANT WEATHER AND/OR OBSTRUCTIONS TO VISIBILITY.

  * THESE STATIONS DO NOT REPORT WEATHER SUCH AS RAIN...SNOW OR FOG.

NEZ001>004-019>022-054>056-291900-
NEBRASKA PANHANDLE

CITY           SKY/WX    TMP DP  RH WIND       PRES   REMARKS
SCOTTSBLUFF    SUNNY     42  23  46 NW6       30.50F
6HR MIN TEMP:  28; 6HR MAX TEMP:  42;

ALLIANCE       SUNNY     38  22  52 N8        30.49R WCI  32
6HR MIN TEMP:  17; 6HR MAX TEMP:  38;

CHADRON        SUNNY     39  23  52 NW10      30.51S WCI  32
6HR MIN TEMP:  22; 6HR MAX TEMP:  39;

KIMBALL        SUNNY     42  17  36 N13       30.47S
SIDNEY         SUNNY     41  16  36 N17       30.50R
6HR MIN TEMP:  24; 6HR MAX TEMP:  42;

$$

NEZ057>060-069>072-079>082-291900-
SOUTHWEST NEBRASKA

CITY           SKY/WX    TMP DP  RH WIND       PRES   REMARKS
NORTH PLATTE   SUNNY     40  23  50 NW14      30.49S WCI  32
6HR MIN TEMP:  23; 6HR MAX TEMP:  40;

IMPERIAL       MOSUNNY   39  25  57 NW15      30.52S WCI  31
6HR MIN TEMP:  27; 6HR MAX TEMP:  39;

LEXINGTON      SUNNY     41  25  53 N17       30.49R
MCCOOK         SUNNY     43  23  45 N16G28    30.51S
6HR MIN TEMP:  28; 6HR MAX TEMP:  43;

OGALLALA       SUNNY     38  26  62 NW8       30.51F WCI  33
$$

NEZ005>010-023>029-035>040-094-291900-
NORTH CENTRAL NEBRASKA

CITY           SKY/WX    TMP DP  RH WIND       PRES   REMARKS
VALENTINE      SUNNY     39  23  52 NW15      30.48S WCI  31
6HR MIN TEMP:  34; 6HR MAX TEMP:  39;

AINSWORTH      SUNNY     38  23  54 NW18      30.47R WCI  28
BROKEN BOW     MOSUNNY   40  24  53 NW21      30.47R WCI  30
6HR MIN TEMP:  35; 6HR MAX TEMP:  40;

O`NEILL        PTSUNNY   40  26  57 NW23G29   30.45R WCI  30
ORD            CLOUDY    40  24  53 N21G29    30.46R WCI  30
6HR MIN TEMP:  35; 6HR MAX TEMP:  40;

THEDFORD       SUNNY     40  24  54 NW15G21   30.48S WCI  31
$$

NEZ041-046>049-061>064-073>077-083>087-291900-
SOUTH CENTRAL NEBRASKA

CITY           SKY/WX    TMP DP  RH WIND       PRES   REMARKS
GRAND ISLAND   CLOUDY    40  25  55 N22G36    30.47R WCI  30
6HR MIN TEMP:  35; 6HR MAX TEMP:  40;

AURORA         CLOUDY    39  26  58 N23G30    30.46R WCI  29
HASTINGS       PTSUNNY   40  24  53 N23G33    30.46S WCI  30
6HR MIN TEMP:  34; 6HR MAX TEMP:  40;

HEBRON         CLOUDY    42  24  49 N18G29    30.45S
HOLDREGE       MOSUNNY   40  24  52 N16G22    30.47S WCI  32
KEARNEY *      MOSUNNY   41  23  48 N24       30.47S
YORK           CLOUDY    39  27  60 N18G25    30.44R WCI  30
$$

NEZ011>018-030>034-042>045-291900-
NORTHEAST NEBRASKA

CITY           SKY/WX    TMP DP  RH WIND       PRES   REMARKS
NORFOLK        CLOUDY    37  26  64 NW25G32   30.42R WCI  25
6HR MIN TEMP:  35; 6HR MAX TEMP:  37;

ALBION         CLOUDY    38  25  57 N23G32    30.44S WCI  28
BLAIR          CLOUDY    38  26  61 NW23G30   30.39S WCI  27
COLUMBUS *     CLOUDY    37  23  56 N18G26    30.45S WCI  27
FREMONT        CLOUDY    39  28  63 NW22      30.43S WCI  28
TEKAMAH        CLOUDY    38  27  64 NW22G31   30.42R WCI  27
6HR MIN TEMP:  36; 6HR MAX TEMP:  39;

WAYNE          CLOUDY    36  26  68 N21G26    30.43R WCI  24
$$

NEZ050>053-065>068-078-088>093-291900-
SOUTHEAST NEBRASKA

CITY           SKY/WX    TMP DP  RH WIND       PRES   REMARKS
LINCOLN        CLOUDY    41  27  57 N21G30    30.43R
6HR MIN TEMP:  38; 6HR MAX TEMP:  42;

OMAHA EPPLEY   CLOUDY    38  25  59 N26G32    30.39R WCI  26
6HR MIN TEMP:  36; 6HR MAX TEMP:  38;

BEATRICE       CLOUDY    39  27  62 N23G30    30.43S WCI  29
FALLS CITY     CLOUDY    40  26  57 NW22G36   30.38R WCI  30
6HR MIN TEMP:  37; 6HR MAX TEMP:  41;

NEBRASKA CITY  CLOUDY    39  22  50 N20G29    30.39R WCI  30
PLATTSMOUTH    CLOUDY    38  24  56 NW23G33   30.39R WCI  27
$$

NEZ044-045-051>053-067-291900-
OMAHA AREA

CITY           SKY/WX    TMP DP  RH WIND       PRES   REMARKS
OMAHA EPPLEY   CLOUDY    38  25  59 N26G32    30.39R WCI  26
6HR MIN TEMP:  36; 6HR MAX TEMP:  38;

BLAIR          CLOUDY    38  26  61 NW23G30   30.39S WCI  27
FREMONT        CLOUDY    39  28  63 NW22      30.43S WCI  28
MILLARD        CLOUDY    39  27  61 NW15G31   30.41S WCI  30
OFFUTT AFB     CLOUDY    38  25  58 NW20      30.40R WCI  29
PLATTSMOUTH    CLOUDY    38  24  56 NW23G33   30.39R WCI  27
WAHOO          CLOUDY    39  26  59 N21G31    30.42R WCI  29
$$



USA.gov is the U.S. government's official web portal to all federal, state and local government web resources and services.